Weather History for Tekamah, NE

Change the Weather History Date:

Friday, February 28, 2014

  Actual Average Record
Temperature  
Mean Temperature 22 °F -  
Max Temperature 33 °F 44 °F 75 °F (1972)
Min Temperature 10 °F 24 °F -21 °F (1962)
Degree Days  
Heating Degree Days 44    
Moisture  
Dew Point 15 °F    
Average Humidity 72    
Maximum Humidity 86    
Minimum Humidity 49    
Precipitation  
Precipitation 0.02 in - - ()
Sea Level Pressure  
Sea Level Pressure 29.97 in    
Wind  
Wind Speed 13 mph (NNW)    
Max Wind Speed 25 mph    
Max Gust Speed 30 mph    
Visibility 5 miles    
Events Fog , Snow    
Averages and records for this station are not official NWS values.
T = Trace of Precipitation, MM = Missing Value Source: NWS Daily Summary

Daily Weather History Graph

Daily Weather History Graph

Search for Another Location

Airport:

Trip Planner

Search our weather history database for the weather conditions in past years. The results will help you decide how hot, cold, wet, or windy it might be!

Date:

Astronomy

Feb. 28, 2014 Rise Set
Actual Time 7:01 AM CST 6:13 PM CST
Civil Twilight 6:33 AM CST 6:41 PM CST
Nautical Twilight 6:00 AM CST 7:14 PM CST
Astronomical Twilight 5:28 AM CST 7:46 PM CST
Moon 6:16 AM CST (2/28) 5:52 PM CST (2/28)
Length of Visible Light 12h 08m
Length of Day
11h 12m
Waning Crescent, 1% of the Moon is Illuminated
Feb 28
Waning Crescent
Mar 1
New
Mar 8
First Quarter
Mar 16
Full
Mar 23
Last Quarter

Hourly Weather History & Observations

Time (CST) Temp. Windchill Dew Point Humidity Pressure Visibility Wind Dir Wind Speed Gust Speed Precip Events Conditions
12:54 AM 10.0 °F -4.5 °F -0.9 °F 61% 29.94 in 10.0 mi ESE 11.5 mph - N/A   Overcast
4:54 AM 12.9 °F -0.9 °F 3.0 °F 65% 29.84 in 10.0 mi SE 11.5 mph - N/A   Clear
5:54 AM 12.9 °F -0.2 °F 3.0 °F 65% 29.84 in 10.0 mi SE 10.4 mph - N/A   Clear
6:54 AM 12.9 °F 0.7 °F 3.9 °F 67% 29.83 in 10.0 mi SE 9.2 mph - N/A   Clear
7:54 AM 16.0 °F 2.9 °F 5.0 °F 62% 29.83 in 10.0 mi SE 11.5 mph - N/A   Scattered Clouds
8:54 AM 19.9 °F 6.2 °F 7.0 °F 57% 29.84 in 10.0 mi SSE 15.0 mph - N/A   Mostly Cloudy
9:54 AM 21.9 °F 13.4 °F 9.0 °F 58% 29.85 in 10.0 mi SSE 6.9 mph - N/A   Mostly Cloudy
10:54 AM 27.0 °F 18.7 °F 10.9 °F 51% 29.87 in 10.0 mi South 8.1 mph - N/A   Mostly Cloudy
11:54 AM 28.9 °F 22.8 °F 12.0 °F 49% 29.88 in 10.0 mi Variable 5.8 mph - N/A   Mostly Cloudy
12:54 PM 30.9 °F 25.2 °F 15.1 °F 52% 29.89 in 10.0 mi West 5.8 mph - N/A   Mostly Cloudy
1:54 PM 33.1 °F 24.9 °F 16.0 °F 50% 29.88 in 10.0 mi West 10.4 mph - N/A   Mostly Cloudy
2:51 PM 30.2 °F 21.3 °F 19.4 °F 64% 29.88 in 2.0 mi NW 10.4 mph - 0.00 in Snow Light Snow
2:54 PM 30.0 °F 20.5 °F 21.0 °F 69% 29.92 in 2.0 mi NW 11.5 mph - 0.00 in Snow Light Snow
3:03 PM 30.0 °F 19.5 °F 21.0 °F 69% 29.89 in 1.8 mi NNW 13.8 mph - 0.00 in Snow Light Snow
3:18 PM 28.9 °F 17.3 °F 21.0 °F 72% 29.89 in 0.8 mi NNW 16.1 mph 24.2 mph 0.00 in Snow Light Snow
3:28 PM 28.9 °F 18.6 °F 19.9 °F 69% 29.90 in 2.0 mi NNW 12.7 mph - 0.00 in Snow Light Snow
3:35 PM 30.0 °F 19.5 °F 19.0 °F 64% 29.90 in 9.0 mi NNW 13.8 mph - 0.00 in   Overcast
3:52 PM 30.2 °F 19.8 °F 19.4 °F 64% 29.90 in 10.0 mi NNW 13.8 mph - 0.00 in   Overcast
3:54 PM 30.9 °F 20.7 °F 19.0 °F 61% 29.94 in 10.0 mi North 13.8 mph - 0.00 in   Overcast
4:31 PM 27.0 °F 12.5 °F 19.9 °F 75% 29.94 in 1.5 mi North 23.0 mph - 0.00 in Snow Light Snow
4:41 PM 26.1 °F 12.3 °F 21.0 °F 81% 29.95 in 0.5 mi North 19.6 mph - 0.00 in Snow Snow
4:54 PM 26.1 °F 13.6 °F 21.0 °F 81% 29.99 in 0.5 mi NNW 16.1 mph - 0.00 in Snow Snow
5:25 PM 25.0 °F 10.6 °F 21.0 °F 85% 29.98 in 0.5 mi NNW 20.7 mph - 0.01 in Fog , Snow Snow
5:37 PM 24.1 °F 9.8 °F 19.9 °F 84% 29.99 in 0.8 mi NNW 19.6 mph - 0.01 in Snow Light Snow
5:45 PM 23.0 °F 6.6 °F 19.0 °F 85% 29.99 in 0.2 mi NNW 25.3 mph 29.9 mph 0.01 in Fog , Snow Snow
5:54 PM 21.9 °F 6.2 °F 18.0 °F 85% 30.04 in 0.2 mi North 21.9 mph - 0.01 in Fog , Snow Heavy Snow
6:10 PM 21.9 °F 6.5 °F 18.0 °F 85% 30.01 in 1.0 mi North 20.7 mph - 0.00 in Snow Light Snow
6:18 PM 21.9 °F 6.9 °F 18.0 °F 85% 30.01 in 0.8 mi North 19.6 mph - 0.00 in Snow Light Snow
6:31 PM 21.9 °F 7.8 °F 18.0 °F 85% 30.01 in 1.0 mi North 17.3 mph - 0.00 in Snow Light Snow
6:52 PM 21.2 °F 7.3 °F 17.6 °F 86% 30.02 in 1.2 mi North 16.1 mph - 0.00 in Snow Light Snow
6:54 PM 21.9 °F 8.7 °F 17.1 °F 82% 30.06 in 1.0 mi North 15.0 mph - 0.00 in Snow Light Snow
7:04 PM 21.9 °F 9.2 °F 17.1 °F 82% 30.02 in 1.0 mi North 13.8 mph - 0.00 in   Haze
7:14 PM 21.9 °F 9.2 °F 17.1 °F 82% 30.03 in 2.0 mi North 13.8 mph - 0.00 in   Haze
7:25 PM 21.9 °F 10.4 °F 17.1 °F 82% 30.03 in 4.0 mi North 11.5 mph - 0.00 in   Haze
7:41 PM 21.9 °F 11.7 °F 17.1 °F 82% 30.04 in 6.0 mi North 9.2 mph - 0.00 in Snow Light Snow
7:52 PM 21.2 °F 10.1 °F 17.6 °F 86% 30.07 in 6.0 mi North 10.4 mph - 0.00 in Snow Light Snow
7:54 PM 21.9 °F 11.7 °F 17.1 °F 82% 30.11 in 6.0 mi NNW 9.2 mph - 0.00 in   Haze
8:54 PM 21.0 °F 6.6 °F 14.0 °F 74% 30.14 in 10.0 mi NNW 17.3 mph - 0.01 in   Overcast
9:54 PM 19.9 °F 4.3 °F 12.9 °F 74% 30.16 in 10.0 mi North 19.6 mph - N/A   Overcast
10:54 PM 19.0 °F 3.2 °F 12.0 °F 74% 30.20 in 10.0 mi NNW 19.6 mph - N/A   Overcast
11:54 PM 18.0 °F 0.9 °F 10.0 °F 71% 30.18 in 10.0 mi North 21.9 mph - N/A   Overcast